Time,TemperatureF,DewpointF,PressureIn,WindDirection,WindDirectionDegrees,WindSpeedMPH,WindSpeedGustMPH,Humidity,HourlyPrecipIn,Conditions,Clouds,dailyrainin,SoftwareType,DateUTC
2013-04-07 00:02:00,65.0,52.5,29.80,South,190,2.0,2.0,64,0.00,,,0.00,Wunderground v.1.15,2013-04-07 05:02:00,
2013-04-07 00:14:00,64.8,52.8,29.79,South,190,1.0,1.0,65,0.00,,,0.00,Wunderground v.1.15,2013-04-07 05:14:00,
2013-04-07 00:28:00,64.5,52.9,29.79,South,190,1.0,1.0,66,0.00,,,0.00,Wunderground v.1.15,2013-04-07 05:28:00,
2013-04-07 00:44:00,64.1,52.9,29.79,South,190,1.0,2.0,67,0.00,,,0.00,Wunderground v.1.15,2013-04-07 05:44:00,
2013-04-07 00:58:00,63.6,52.8,29.79,South,190,1.0,2.0,68,0.00,,,0.00,Wunderground v.1.15,2013-04-07 05:58:00,
2013-04-07 01:28:00,62.7,52.8,29.79,South,190,2.0,2.0,70,0.00,,,0.00,Wunderground v.1.15,2013-04-07 06:28:00,
2013-04-07 01:44:00,62.1,53.0,29.79,South,190,1.0,1.0,72,0.00,,,0.00,Wunderground v.1.15,2013-04-07 06:44:00,
2013-04-07 01:58:00,61.8,53.1,29.79,South,190,0.0,0.0,73,0.00,,,0.00,Wunderground v.1.15,2013-04-07 06:58:00,
2013-04-07 02:14:00,61.3,52.6,29.79,South,190,1.0,1.0,73,0.00,,,0.00,Wunderground v.1.15,2013-04-07 07:14:00,
2013-04-07 02:28:00,60.9,52.9,29.79,South,190,0.0,0.0,75,0.00,,,0.00,Wunderground v.1.15,2013-04-07 07:28:00,
2013-04-07 02:44:00,60.6,52.6,29.79,South,190,1.0,1.0,75,0.00,,,0.00,Wunderground v.1.15,2013-04-07 07:44:00,
2013-04-07 02:58:00,60.4,52.8,29.78,South,190,0.0,0.0,76,0.00,,,0.00,Wunderground v.1.15,2013-04-07 07:58:00,
2013-04-07 03:16:00,60.0,52.8,29.78,South,190,0.0,2.0,77,0.00,,,0.00,Wunderground v.1.15,2013-04-07 08:16:00,
2013-04-07 03:28:00,59.7,52.5,29.78,South,190,0.0,0.0,77,0.00,,,0.00,Wunderground v.1.15,2013-04-07 08:28:00,
2013-04-07 03:44:00,59.4,52.5,29.78,South,190,1.0,2.0,78,0.00,,,0.00,Wunderground v.1.15,2013-04-07 08:44:00,
2013-04-07 03:58:00,59.0,52.5,29.78,South,190,1.0,1.0,79,0.00,,,0.00,Wunderground v.1.15,2013-04-07 08:58:00,
2013-04-07 04:14:00,59.0,52.8,29.78,South,190,1.0,1.0,80,0.00,,,0.00,Wunderground v.1.15,2013-04-07 09:14:00,
2013-04-07 04:28:00,59.0,53.2,29.78,South,190,1.0,1.0,81,0.00,,,0.00,Wunderground v.1.15,2013-04-07 09:28:00,
2013-04-07 04:46:00,59.0,53.2,29.78,South,190,1.0,2.0,81,0.00,,,0.00,Wunderground v.1.15,2013-04-07 09:46:00,
2013-04-07 04:58:00,59.0,53.5,29.77,South,190,1.0,1.0,82,0.00,,,0.00,Wunderground v.1.15,2013-04-07 09:58:00,
2013-04-07 05:14:00,59.0,53.8,29.77,South,190,0.0,0.0,83,0.00,,,0.00,Wunderground v.1.15,2013-04-07 10:14:00,
2013-04-07 05:28:00,59.0,53.8,29.77,South,190,2.0,2.0,83,0.00,,,0.00,Wunderground v.1.15,2013-04-07 10:28:00,
2013-04-07 05:44:00,59.0,53.8,29.77,South,190,2.0,3.0,83,0.00,,,0.00,Wunderground v.1.15,2013-04-07 10:44:00,
2013-04-07 05:58:00,59.0,54.2,29.77,South,190,1.0,1.0,84,0.00,,,0.00,Wunderground v.1.15,2013-04-07 10:58:00,
2013-04-07 06:14:00,58.8,54.3,29.78,South,190,1.0,1.0,85,0.00,,,0.00,Wunderground v.1.15,2013-04-07 11:14:00,
2013-04-07 06:28:00,58.3,53.8,29.78,South,190,1.0,1.0,85,0.00,,,0.00,Wunderground v.1.15,2013-04-07 11:28:00,
2013-04-07 07:00:00,58.0,53.8,29.79,South,190,1.0,2.0,86,0.00,,,0.00,Wunderground v.1.15,2013-04-07 12:00:00,
2013-04-07 07:28:00,58.3,54.4,29.79,South,190,1.0,3.0,87,0.00,,,0.00,Wunderground v.1.15,2013-04-07 12:28:00,
2013-04-07 07:46:00,58.9,54.7,29.79,South,178,3.0,3.0,86,0.00,,,0.00,Wunderground v.1.15,2013-04-07 12:46:00,
2013-04-07 07:58:00,59.0,54.8,29.79,South,176,2.0,2.0,86,0.00,,,0.00,Wunderground v.1.15,2013-04-07 12:58:00,
2013-04-07 08:14:00,60.2,55.7,29.80,South,180,4.0,5.0,85,0.00,,,0.00,Wunderground v.1.15,2013-04-07 13:14:00,
2013-04-07 08:28:00,61.1,55.9,29.80,South,169,3.0,3.0,83,0.00,,,0.00,Wunderground v.1.15,2013-04-07 13:28:00,
2013-04-07 08:44:00,61.3,55.8,29.80,SE,145,3.0,3.0,82,0.00,,,0.00,Wunderground v.1.15,2013-04-07 13:44:00,
2013-04-07 08:58:00,62.7,56.4,29.80,South,173,4.0,4.0,80,0.00,,,0.00,Wunderground v.1.15,2013-04-07 13:58:00,
2013-04-07 09:14:00,62.5,55.9,29.80,South,188,6.0,6.0,79,0.00,,,0.00,Wunderground v.1.15,2013-04-07 14:14:00,
2013-04-07 09:28:00,62.8,56.2,29.79,South,190,5.0,5.0,79,0.00,,,0.00,Wunderground v.1.15,2013-04-07 14:28:00,
2013-04-07 09:44:00,63.0,56.0,29.79,South,179,5.0,5.0,78,0.00,,,0.00,Wunderground v.1.15,2013-04-07 14:44:00,
2013-04-07 09:58:00,63.1,56.5,29.79,South,190,6.0,6.0,79,0.00,,,0.00,Wunderground v.1.15,2013-04-07 14:58:00,
2013-04-07 10:14:00,63.5,56.9,29.80,South,171,5.0,5.0,79,0.00,,,0.00,Wunderground v.1.15,2013-04-07 15:14:00,
2013-04-07 10:28:00,64.4,57.0,29.80,South,179,6.0,13.0,77,0.00,,,0.00,Wunderground v.1.15,2013-04-07 15:28:00,
2013-04-07 10:44:00,65.0,57.2,29.80,SSE,155,7.0,7.0,76,0.00,,,0.00,Wunderground v.1.15,2013-04-07 15:44:00,
2013-04-07 10:58:00,65.3,57.5,29.80,South,169,5.0,5.0,76,0.00,,,0.00,Wunderground v.1.15,2013-04-07 15:58:00,
2013-04-07 11:16:00,64.7,57.3,29.80,South,177,5.0,7.0,77,0.00,,,0.00,Wunderground v.1.15,2013-04-07 16:16:00,
2013-04-07 11:28:00,64.5,57.1,29.80,South,189,7.0,7.0,77,0.00,,,0.00,Wunderground v.1.15,2013-04-07 16:28:00,
2013-04-07 11:44:00,64.6,57.2,29.80,South,171,7.0,7.0,77,0.00,,,0.00,Wunderground v.1.15,2013-04-07 16:44:00,
2013-04-07 12:00:00,64.0,57.0,29.79,SSE,159,8.0,8.0,78,0.00,,,0.00,Wunderground v.1.15,2013-04-07 17:00:00,
2013-04-07 12:14:00,64.3,57.3,29.79,SSW,194,6.0,6.0,78,0.00,,,0.00,Wunderground v.1.15,2013-04-07 17:14:00,
2013-04-07 12:28:00,64.5,57.5,29.78,South,186,6.0,6.0,78,0.00,,,0.00,Wunderground v.1.15,2013-04-07 17:28:00,
2013-04-07 12:44:00,64.9,57.5,29.77,South,184,5.0,9.0,77,0.00,,,0.00,Wunderground v.1.15,2013-04-07 17:44:00,
2013-04-07 12:58:00,64.7,57.3,29.76,South,186,8.0,8.0,77,0.00,,,0.00,Wunderground v.1.15,2013-04-07 17:58:00,
2013-04-07 13:14:00,64.7,57.3,29.76,South,182,7.0,8.0,77,0.00,,,0.00,Wunderground v.1.15,2013-04-07 18:14:00,
2013-04-07 13:28:00,64.8,57.4,29.75,South,181,8.0,8.0,77,0.00,,,0.00,Wunderground v.1.15,2013-04-07 18:28:00,
2013-04-07 13:44:00,65.0,57.6,29.74,SW,220,8.0,10.0,77,0.00,,,0.00,Wunderground v.1.15,2013-04-07 18:44:00,
2013-04-07 13:58:00,64.8,57.8,29.73,South,183,9.0,9.0,78,0.00,,,0.00,Wunderground v.1.15,2013-04-07 18:58:00,
2013-04-07 14:14:00,64.8,57.4,29.72,SSW,194,8.0,12.0,77,0.00,,,0.00,Wunderground v.1.15,2013-04-07 19:14:00,
2013-04-07 14:28:00,64.7,57.7,29.72,South,191,9.0,11.0,78,0.00,,,0.00,Wunderground v.1.15,2013-04-07 19:28:00,
2013-04-07 14:58:00,65.1,57.7,29.70,SSE,168,10.0,14.0,77,0.00,,,0.00,Wunderground v.1.15,2013-04-07 19:58:00,
2013-04-07 15:14:00,65.3,57.9,29.69,SE,128,8.0,8.0,77,0.00,,,0.00,Wunderground v.1.15,2013-04-07 20:14:00,
2013-04-07 15:28:00,65.5,57.7,29.69,South,186,9.0,15.0,76,0.00,,,0.00,Wunderground v.1.15,2013-04-07 20:28:00,
2013-04-07 15:58:00,65.0,58.0,29.68,SSE,166,9.0,13.0,78,0.00,,,0.00,Wunderground v.1.15,2013-04-07 20:58:00,
2013-04-07 16:14:00,65.2,58.2,29.67,South,175,7.0,15.0,78,0.00,,,0.00,Wunderground v.1.15,2013-04-07 21:14:00,
2013-04-07 16:28:00,65.0,58.0,29.67,South,183,8.0,8.0,78,0.00,,,0.00,Wunderground v.1.15,2013-04-07 21:28:00,
2013-04-07 16:44:00,64.9,58.2,29.67,SSW,202,9.0,9.0,79,0.00,,,0.00,Wunderground v.1.15,2013-04-07 21:44:00,
2013-04-07 16:58:00,64.8,58.1,29.66,SSE,163,9.0,12.0,79,0.00,,,0.00,Wunderground v.1.15,2013-04-07 21:58:00,
2013-04-07 17:14:00,64.8,58.1,29.66,South,191,8.0,8.0,79,0.00,,,0.00,Wunderground v.1.15,2013-04-07 22:14:00,
2013-04-07 17:28:00,64.7,58.4,29.65,SSE,160,7.0,7.0,80,0.00,,,0.00,Wunderground v.1.15,2013-04-07 22:28:00,
2013-04-07 17:44:00,64.6,58.3,29.66,SSE,153,6.0,6.0,80,0.00,,,0.00,Wunderground v.1.15,2013-04-07 22:44:00,
2013-04-07 17:58:00,64.5,58.5,29.65,South,171,6.0,6.0,81,0.00,,,0.00,Wunderground v.1.15,2013-04-07 22:58:00,
2013-04-07 18:14:00,64.8,58.5,29.65,SSW,192,8.0,13.0,80,0.00,,,0.00,Wunderground v.1.15,2013-04-07 23:14:00,
2013-04-07 18:28:00,65.0,58.7,29.65,South,175,8.0,8.0,80,0.00,,,0.00,Wunderground v.1.15,2013-04-07 23:28:00,
2013-04-07 18:46:00,65.0,58.7,29.65,SSW,211,7.0,9.0,80,0.00,,,0.00,Wunderground v.1.15,2013-04-07 23:46:00,
2013-04-07 18:58:00,65.0,58.7,29.64,South,172,7.0,7.0,80,0.00,,,0.00,Wunderground v.1.15,2013-04-07 23:58:00,
2013-04-07 19:28:00,65.3,58.6,29.65,South,173,6.0,6.0,79,0.00,,,0.00,Wunderground v.1.15,2013-04-08 00:28:00,
2013-04-07 19:44:00,65.2,58.9,29.65,South,180,7.0,7.0,80,0.00,,,0.00,Wunderground v.1.15,2013-04-08 00:44:00,
2013-04-07 19:58:00,65.3,59.0,29.65,South,182,6.0,6.0,80,0.00,,,0.00,Wunderground v.1.15,2013-04-08 00:58:00,
2013-04-07 20:14:00,65.3,59.0,29.66,SSW,196,4.0,6.0,80,0.00,,,0.00,Wunderground v.1.15,2013-04-08 01:14:00,
2013-04-07 20:28:00,65.4,59.1,29.66,SSW,196,5.0,5.0,80,0.00,,,0.00,Wunderground v.1.15,2013-04-08 01:28:00,
2013-04-07 20:44:00,65.6,58.9,29.65,SE,142,6.0,6.0,79,0.00,,,0.00,Wunderground v.1.15,2013-04-08 01:44:00,
2013-04-07 21:00:00,65.7,59.0,29.66,South,188,5.0,5.0,79,0.00,,,0.00,Wunderground v.1.15,2013-04-08 02:00:00,
2013-04-07 21:14:00,65.7,59.0,29.67,South,191,4.0,5.0,79,0.00,,,0.00,Wunderground v.1.15,2013-04-08 02:14:00,
2013-04-07 21:28:00,65.8,58.7,29.68,SSE,153,5.0,10.0,78,0.00,,,0.00,Wunderground v.1.15,2013-04-08 02:28:00,
2013-04-07 21:44:00,65.8,58.7,29.68,SSE,161,5.0,5.0,78,0.00,,,0.00,Wunderground v.1.15,2013-04-08 02:44:00,
2013-04-07 21:58:00,65.8,58.7,29.68,SSE,165,4.0,4.0,78,0.00,,,0.00,Wunderground v.1.15,2013-04-08 02:58:00,
2013-04-07 22:14:00,65.7,58.7,29.68,SSW,200,5.0,5.0,78,0.00,,,0.00,Wunderground v.1.15,2013-04-08 03:14:00,
2013-04-07 22:28:00,65.7,58.7,29.68,South,186,5.0,10.0,78,0.00,,,0.00,Wunderground v.1.15,2013-04-08 03:28:00,
2013-04-07 22:44:00,65.6,58.6,29.68,South,176,5.0,5.0,78,0.00,,,0.00,Wunderground v.1.15,2013-04-08 03:44:00,
2013-04-07 22:58:00,65.6,58.6,29.69,SSE,156,5.0,5.0,78,0.00,,,0.00,Wunderground v.1.15,2013-04-08 03:58:00,
2013-04-07 23:00:00,65.6,58.6,29.68,South,181,5.0,7.0,78,0.00,,,0.00,Wunderground v.1.15,2013-04-08 04:00:00,
2013-04-07 23:02:00,65.5,58.5,29.69,SSE,159,5.0,7.0,78,0.00,,,0.00,Wunderground v.1.15,2013-04-08 04:02:00,
2013-04-07 23:14:00,65.4,58.4,29.68,South,173,4.0,4.0,78,0.00,,,0.00,Wunderground v.1.15,2013-04-08 04:14:00,
2013-04-07 23:28:00,65.2,58.2,29.68,South,187,4.0,4.0,78,0.00,,,0.00,Wunderground v.1.15,2013-04-08 04:28:00,
2013-04-07 23:30:00,65.2,58.2,29.68,SSE,161,5.0,11.0,78,0.00,,,0.00,Wunderground v.1.15,2013-04-08 04:30:00,
2013-04-07 23:44:00,65.0,58.0,29.68,South,178,4.0,4.0,78,0.00,,,0.00,Wunderground v.1.15,2013-04-08 04:44:00,
2013-04-07 23:46:00,64.9,57.9,29.68,SSE,153,4.0,7.0,78,0.00,,,0.00,Wunderground v.1.15,2013-04-08 04:46:00,
2013-04-07 23:58:00,64.5,57.8,29.67,South,186,4.0,5.0,79,0.00,,,0.00,Wunderground v.1.15,2013-04-08 04:58:00,